User: anonymous   Login
Location: 5810 Zion Rd, Cleves, OH 45002, USA
(39.1922°N, 84.7113°W)
Time: 01:10:01
(UTC-05:00)
Language:

Vanguard 2 - Orbit

View from above orbital plane
View from above orbital plane
View from above satellite
View from above satellite

Ground track
Ground track

The orbit data is extracted from the following two-line orbital elements,

1    11U 59001A   19340.51834465  .00000222  00000-0  98276-4 0  9992
2    11  32.8784  63.5156 1467700 236.7184 108.4285 11.85634293593690
Epoch (UTC): 06 December 2019 12:26:24
Eccentricity: 0.1467700
inclination: 32.8784°
perigee height: 553 km
apogee height: 2938 km
right ascension of ascending node: 63.5156°
argument of perigee: 236.7184°
revolutions per day: 11.85634293
mean anomaly at epoch: 108.4285°
orbit number at epoch: 59369

The dashed part of the orbit path shows where the satellite is in the earth's shadow,  

DLR